Weather Roundup
Issued by NWS

Home | Current Version | Previous Version | Text Only | Print | Product List | Glossary On
Versions: 1 2 3 4 5 6 7 8 9 10 11 12 13 14 15 16 17 18 19 20 21 22 23 24 25 26 27 28 29 30 31 32 33 34 35 36 37 38 39 40 41 42 43 44 45 46 47 48 49 50
000
NZUS93 KARX 270610
HRRWXR

CURRENT HOURLY OBSERVATIONS ACROSS
MUCH OF THE UPPER MISSISSIPPI VALLEY
NATIONAL WEATHER SERVICE LA CROSSE WI
100 AM CDT WED MAY 27 2015


...SOUTHEAST MINNESOTA...


CITY           SKY/WX    TMP DP  RH WIND       PRES   REMARKS
ROCHESTER      CLOUDY    57  56  96 W8        29.85R
ROCHESTER/MAYO CLOUDY    57  57 100 W9        29.83S
WINONA         CLOUDY    59  55  88 W6        29.80S
AUSTIN         CLOUDY    57  55  94 W7        29.85R
ALBERT LEA     DRIZZLE   57  55  94 W5        29.85F
DODGE CENTER   LGT RAIN  57  55  94 W7        29.84S
PRESTON        CLOUDY    57  55  94 W10       29.84R FOG
OWATONNA       DRIZZLE   57  55  94 W7        29.85S
FARIBAULT      CLOUDY    57  55  94 W5        29.84S
$$

...ELSEWHERE IN MINNESOTA...


CITY           SKY/WX    TMP DP  RH WIND       PRES   REMARKS
MINNEAPOLIS    CLOUDY    58  56  93 W6        29.82S
INTNL FALLS    PTCLDY    57  51  80 SW6       29.74F
DULUTH         CLOUDY    53  50  89 CALM      29.78F
RED WING       RAIN      57  55  94 NW3       29.81S
REDWOOD FALLS  MOCLDY    57  54  89 S3        29.84F
MANKATO        CLOUDY    55  54  94 W5        29.85S
WORTHINGTON    CLOUDY    55  52  88 S5        29.89S
FAIRMONT       CLOUDY    57  52  82 W6        29.87S
$$

...SOUTHWEST WISCONSIN...


CITY           SKY/WX    TMP DP  RH WIND       PRES   REMARKS
LA CROSSE      CLOUDY    62  58  86 W5        29.79S
PRAIRIE DU CHI CLOUDY    61  58  90 CALM      29.81S
BOSCOBEL       PTCLDY    60  57  89 CALM      29.81S
LONE ROCK      PTCLDY    60  58  92 SW5       29.80S
PLATTEVILLE    PTCLDY    58  58  97 SW5       29.82F
FORT MC COY    CLOUDY    60  58  95 W5        29.79R
CAMP DOUGLAS   MOCLDY    61  61 100 W15       29.76R
VIROQUA        CLOUDY    58  58 100 W6        29.81R
WIS DELLS      PTCLDY    59  56  89 W10       29.78R
$$

...ELSEWHERE IN WISCONSIN...


CITY           SKY/WX    TMP DP  RH WIND       PRES   REMARKS
MILWAUKEE      MOCLDY    66  59  78 SW14      29.79S
MADISON        PTCLDY    62  57  83 SW7       29.79S
GREEN BAY      CLOUDY    65  58  78 SW20G29   29.63F
EAU CLAIRE     LGT RAIN  56  54  93 W3        29.78R
BLACK RVR FLS  DRIZZLE   60  60 100 W7        29.77R
MEDFORD        RAIN      55  55  97 NW8G16    29.72S
WAUSAU         HVY RAIN  59  58  96 VRB3G17   29.65S FOG
WIS RAPIDS     CLOUDY    60  57  89 W12G21    29.74R
MARSHFIELD     LGT RAIN  58  55  90 W9G21     29.73R
RICE LAKE      DRIZZLE   55  54  94 W7        29.79F
$$

...NORTHEAST IOWA...


CITY           SKY/WX    TMP DP  RH WIND       PRES   REMARKS
DECORAH        CLOUDY    59  59 100 VRB6      29.83R
MASON CITY     CLOUDY    58  56  93 W8        29.88S
CHARLES CITY   CLOUDY    59  59 100 NW12      29.86R
OELWEIN        CLOUDY    61  59  94 W7        29.84F
$$

...ELSEWHERE IN IOWA...


CITY           SKY/WX    TMP DP  RH WIND       PRES   REMARKS
DES MOINES     CLOUDY    62  58  86 W7        29.88S
IOWA CITY      CLEAR     62  59  90 SW7       29.87S
FORT DODGE     CLOUDY    59  55  88 W3        29.90R
$$

...NORTHERN ILLINOIS...


CITY           SKY/WX    TMP DP  RH WIND       PRES   REMARKS
CHICAGO-OHARE  MOCLDY    69  61  75 SW16G23   29.84R
CHICAGO-MIDWAY CLOUDY    71  62  73 S16       29.84F
MOLINE         CLEAR     65  60  84 SW8       29.85S
ROCKFORD       MOCLDY    64  60  87 SW8       29.84S
PEORIA         MOCLDY    71  61  70 SW10      29.90R
$$

NOTE: "FAIR" INDICATES FEW OR NO CLOUDS BELOW 12,000 FEET WITH NO
SIGNIFICANT WEATHER AND/OR OBSTRUCTIONS TO VISIBILITY. WIND
SPEEDS ARE IN MILES-PER-HOUR.



USA.gov is the U.S. government's official web portal to all federal, state and local government web resources and services.